Погода в Инге

Погода в Инге : погода сейчас, прогноз погоды и архив. Всё, что Вы хотите узнать о погоде в Инге!

Поиск расширенной информации на нашем сайте:

Другие новости

Новости СМИ2

Главная страница сайта

Новости сайта

03.07.2017

Напоминаем, что на нашем специализированном сайте Метеоцентр.Азия вы можете получить высокодетализированные автоматические прогнозы погоды по пунктам России, СНГ и мира в авиационном формате (включающие направление и скорость ветра, видимость, явления погоды, количество и форму облачности, нижнюю и верхнюю границу облачности).


Погода в Инге - сегодня

Время (UTC), дата Ветер
(°,м/с) 
Видим.   Явления Облачность Т
(°С)
Тd
(°С)
f(%) Тe
(°С)
Pmin
(гПа)
dP
(гПа)
Po
(мм)
O2
(г/м3)
Тmin Tmax R s Состояние
почвы
15 12.10.18 180 (Ю) н/о    1/0 верхняя 
[Ci fib]
-1.6 -2.8 92 -3  1025  0.5  718  291           
18 12.10.18 тихо ()   н/о    1/0 верхняя 
[Ci fib]
-4.6 -5.5 93 -5  1024.7  -1  718  295           
21 12.10.18 тихо ()   н/о    1/0 верхняя 
[Ci fib]
-6.5 -7.7 91 -7  1025.2  718  297           
00 13.10.18 тихо ()   20000 м    3/0 верхняя 
[Ci fib]
-7.9 -9.3 90 -8  1025.8  0.2  718  299  -8.1         
03 13.10.18 050 (СВ) 20000 м  {туман}  ясно 
+0.6 -1.1 88 1023.5  -0.1  718  289           
06 13.10.18 050 (СВ) 20000 м  {туман}  ясно 
+8.9 +0.2 54 +9  1019.5  -1.8  716  279           
09 13.10.18 050 (СВ) 20000 м    ясно 
+9.8 -0.8 48 +10  1018.1  -1.1  716  278           
12 13.10.18 тихо ()   н/о    ясно 
-0.3 -1.8 90 -0  1020.5  -0.2  715  289    +10.3       
15 13.10.18 тихо ()   н/о    ясно 
-4 -5.5 89 -4  1020.9  -0.4  715  293           
18 13.10.18 тихо ()   н/о    ясно 
-5.9 -7 92 -6  1021.3  -0.1  715  295           
21 13.10.18 тихо ()   н/о    ясно 
-7.6 -8.6 93 -8  1021.6  -0.2  715  297           
00 14.10.18 тихо ()   0500 м  переохл. туман  ясно 
-7 -7.5 96 -7  1021.5  0.1  715  296  -7.7         
03 14.10.18 тихо ()   20000 м  {туман}  ясно 
+1.3 -0.4 88 +1  1019.7  0.3  715  287           
06 14.10.18 тихо ()   20000 м  {туман}  ясно 
+11.6 +0.5 46 +12  1016.6  -0.6  715  276           
09 14.10.18 тихо ()   20000 м    ясно 
+14.6 -0.8 35 +15  1016.7  0.7  715  274           
12 14.10.18 тихо ()   н/о    ясно 
+0.8 -1.5 85 +1  1021.5  1.5  716  288    +14.8       
15 14.10.18 тихо ()   н/о    ясно 
-2.9 -3.1 99 -3  1023.4  0.9  717  292           
18 14.10.18 тихо ()   н/о    ясно 
-4.7 -5.6 93 -5  1024.2  0.3  717  295           
21 14.10.18 тихо ()   н/о    ясно 
-6.7 -7.6 93 -7  1024.8  717  297           
00 15.10.18 тихо ()   20000 м    3/0 верхняя 
[Ci fib]
-7.6 -8.2 95 -8  1025  717  298  -7.7         
03 15.10.18 тихо ()   20000 м    3/0 верхняя 
[Ci fib]
+4.8 -0.8 67 +5  1022.4  0.6  718  284           
06 15.10.18 320 (СЗ) 20000 м    6/0 верхняя 
[Ci]
+12.3 +0.3 44 +13  1021  0.4  718  277           
09 15.10.18 320 (СЗ) 20000 м    10/0 верхняя 
[Ci fib]
+12.2 +0.8 46 +13  1021.6  0.5  718  277           
12 15.10.18 тихо ()   н/о    10/0 средняя, верхняя 
[Ac As|Ci fib]
+2.7 +0.3 84 +3  1026.5  2.5  720  287    +13.4       
15 15.10.18 тихо ()   н/о    10/0 верхняя 
[Ci fib]
-1.9 -3.2 91 -2  1029.3  1.4  721  293           
Время (UTC), дата Ветер
(°,м/с) 
Видим.   Явления Облачность Т
(°С)
Тd
(°С)
f(%) Тe
(°С)
Pmin
(гПа)
dP
(гПа)
Po
(мм)
O2
(г/м3)
Тmin Tmax R s Состояние
почвы

Для получения пояснительной информации подведите курсор к названию столбца.

ПОГОДА в Инге - архив

Всё, что Вы хотите узнать о погоде в Инге - удобно и подробно!

Выберите нужную дату (начиная с 1 января 2015* года) и нажмите кнопку "Найти".
Будут отображены архивные сводки погоды по пункту Инга, начиная с указанной даты.


Отображать данные в формате CSV (для использования в таблицах Excel)


Внимание! Наш архив погоды предназначен исключительно для личного некоммерческого использования в познавательных целях. Если Вам необходимы официальные справки о состоянии погоды (для производственных, юридических, коммерческих и т.п. целей), обращайтесь в органы Росгидромета.

*Примечание: данная дата относится к архиву по метеостанциям СССР (Россия, СНГ, Балтия).
Архив по метеостанциям Зарубежной Европы и Азии (кроме Китая) хранится 10 дней, по другим регионам земного шара (Китай, Африка, Америка, Австралия, Океания) - 1 день.

Инга - район местоположения метеостанции


Название, широта, долгота, высота метеостанции:
Инга 53°ш. 102°д. 543 м над ур. моря [Российская Федерация]

Дополнительная информация

В oтличие oт бoльшинства пoгoдных сайтoв мы публикуем пoдрoбную метеoинфoрмацию в детальнoм прoфессиoнальнoм фoрмате.

Характеристики температуры и влажнoсти вoздуха измеряются на высoте 2 м в тени вдали oт зданий и деревьев.
Скoрoсть ветра измеряется на высoте 10 м (на урoвне рoста челoвека скoрoсть ветра ниже в 1.5-2 раза). Если метеoстанция нахoдится в гoрoде или в лесу, тo скoрoсть ветра занижена на 2-4 м/с пo сравнению с oткрытым местoм. Скoрoсть ветра над акватoриями крупных рек и oзёр, а также на вершинах хoлмoв на 2-5 м/с выше, чем в oбычных услoвиях.
Атмoсфернoе давление в разных тoчках местнoсти мoжет значительнo oтличаться oт давления на метеoстанции, в зависимoсти oт услoвий рельефа (при пoдъёме на 10 м давление пoнижается примернo на 1 мм рт.ст.).